Weather History for Corsicana, TX

Change the Weather History Date:

Sunday, November 18, 2012

  Actual Average (KACT) Record (KACT)
Temperature  
Mean Temperature 58 °F 56 °F  
Max Temperature 71 °F 67 °F 84 °F (1986)
Min Temperature 46 °F 46 °F 20 °F (1959)
Degree Days  
Heating Degree Days 6 9  
Month to date heating degree days 122  
Since 1 July heating degree days 189  
Cooling Degree Days 0 1  
Month to date cooling degree days 30  
Year to date cooling degree days 2786  
Growing Degree Days 8 (Base 50)    
Moisture  
Dew Point 36 °F    
Average Humidity 49    
Maximum Humidity 71    
Minimum Humidity 25    
Precipitation  
Precipitation 0.00 in 0.09 in 1.23 in (1944)
Month to date precipitation 1.82  
Year to date precipitation 30.94  
Snow  
Snow 0.00 in 0.00 in T in (1969)
Month to date snowfall 0.0  
Since 1 July snowfall 0.0  
Since 1 September snowfall 0.0  
Snow Depth -    
Sea Level Pressure  
Sea Level Pressure 30.28 in    
Wind  
Wind Speed 7 mph (SE)    
Max Wind Speed 14 mph    
Max Gust Speed -    
Visibility 10 miles    
Events      
T = Trace of Precipitation, MM = Missing Value Source: NWS Daily Summary

Daily Weather History Graph

Daily Weather History Graph

Search for Another Location

Airport:

Trip Planner

Search our weather history database for the weather conditions in past years. The results will help you decide how hot, cold, wet, or windy it might be!

Date:

Astronomy

Nov. 18, 2012 Rise Set
Actual Time 6:57 AM CST 5:24 PM CST
Civil Twilight 6:31 AM CST 5:50 PM CST
Nautical Twilight 6:01 AM CST 6:19 PM CST
Astronomical Twilight 5:32 AM CST 6:48 PM CST
Moon 11:28 AM CST (11/18) 10:39 PM CST (11/18)
Length of Visible Light 11h 18m
Length of Day
10h 26m
Waxing Crescent, 30% of the Moon is Illuminated
Nov 18
Waxing Crescent
Nov 20
First Quarter
Nov 28
Full
Dec 6
Last Quarter
Dec 13
New

Hourly Weather History & Observations

Time (CST) Temp. Windchill Dew Point Humidity Pressure Visibility Wind Dir Wind Speed Gust Speed Precip Events Conditions
12:53 AM 48.0 °F - 37.0 °F 66% 30.31 in 10.0 mi SE 5.8 mph - N/A   Clear
1:53 AM 46.0 °F 43.1 °F 36.0 °F 68% 30.31 in 10.0 mi SE 5.8 mph - N/A   Clear
2:53 AM 46.0 °F 44.8 °F 36.0 °F 68% 30.31 in 10.0 mi SE 3.5 mph - N/A   Clear
3:53 AM 46.0 °F 42.5 °F 36.0 °F 68% 30.29 in 10.0 mi SE 6.9 mph - N/A   Clear
4:53 AM 46.0 °F 43.1 °F 37.0 °F 71% 30.29 in 10.0 mi SE 5.8 mph - N/A   Clear
5:53 AM 46.9 °F - 36.0 °F 66% 30.29 in 10.0 mi SE 8.1 mph - N/A   Clear
6:53 AM 46.0 °F 43.9 °F 36.0 °F 68% 30.31 in 10.0 mi SE 4.6 mph - N/A   Clear
7:53 AM 48.0 °F - 37.9 °F 68% 30.33 in 10.0 mi SSE 5.8 mph - N/A   Clear
8:53 AM 51.1 °F - 37.9 °F 61% 30.33 in 10.0 mi South 5.8 mph - N/A   Clear
9:53 AM 57.9 °F - 39.0 °F 49% 30.34 in 10.0 mi South 9.2 mph - N/A   Clear
10:53 AM 62.1 °F - 39.0 °F 43% 30.33 in 10.0 mi SSE 8.1 mph - N/A   Clear
11:53 AM 64.9 °F - 37.0 °F 36% 30.30 in 10.0 mi SSE 13.8 mph - N/A   Clear
12:53 PM 66.9 °F - 37.0 °F 33% 30.27 in 10.0 mi SSE 8.1 mph - N/A   Clear
1:53 PM 68.0 °F - 35.1 °F 30% 30.24 in 10.0 mi SSE 12.7 mph - N/A   Clear
2:53 PM 71.1 °F - 33.1 °F 25% 30.22 in 10.0 mi SE 11.5 mph - N/A   Clear
3:53 PM 70.0 °F - 33.1 °F 26% 30.22 in 10.0 mi SSE 12.7 mph - N/A   Clear
4:53 PM 66.9 °F - 35.1 °F 31% 30.22 in 10.0 mi SE 9.2 mph - N/A   Clear
5:53 PM 61.0 °F - 36.0 °F 39% 30.23 in 10.0 mi SE 5.8 mph - N/A   Clear
6:53 PM 60.1 °F - 36.0 °F 41% 30.24 in 10.0 mi SE 5.8 mph - N/A   Clear
7:53 PM 59.0 °F - 37.0 °F 44% 30.25 in 10.0 mi SE 6.9 mph - N/A   Clear
8:53 PM 59.0 °F - 35.1 °F 41% 30.25 in 10.0 mi SSE 9.2 mph - N/A   Clear
9:53 PM 57.9 °F - 35.1 °F 42% 30.25 in 10.0 mi SE 6.9 mph - N/A   Clear
10:53 PM 57.0 °F - 34.0 °F 42% 30.24 in 10.0 mi SE 8.1 mph - N/A   Clear
11:53 PM 57.0 °F - 35.1 °F 44% 30.24 in 10.0 mi SSE 9.2 mph - N/A   Clear